sat.trackr.live / text

‹ back to catalog

STARLINK-33600

NORAD 62772 · 2025-015Q

PAYLOAD ACTIVE UNKNOWN

§ Identity

Operator
Country
US
Launch date
2025-01-21
Launch site
AFWTR
Launch vehicle
Mass (kg)
RCS (m²)

Purposes: comms

External: N2YO · Heavens-Above · Gunter

§ Orbital elements

Epoch: 2026-05-25T04:48:09.116064Z

Period
94.01 min
Inclination
53.1589°
Eccentricity
0.0001045
Mean motion
15.31720434 rev/d
Perigee alt
470.0 km
Apogee alt
471.4 km
Semi-major
6,848.8 km
B*
8.8388e-4
RAAN
327.1817°
Arg perigee
69.2053°
Mean anomaly
290.9060°
Rev number
7,619

§ Raw data

STARLINK-336001 62772U 25015Q   26145.20010551  .00027180  00000+0  88388-3 0  99942 62772  53.1589 327.1817 0001045  69.2053 290.9060 15.31720434 76190

JSON: /api/v1/satellites/62772 · /tle

For live sub-satellite position, see the globe view (requires WebGL).

§ Visibility from observer

Set your observer location to see the next 7 days of passes ≥ 10°. The values pass through the URL so the page stays shareable.

No JS? Fill the form by hand. The geolocation button needs JavaScript.